RYR86DZ EBCI-LFMU

Flight info

Callsign RYR86DZ
Flight time 1h 15m
Altitude 35000
Route CIV Y50 REM B3 VATRI G40 TRO B373 MOU A27 MEN J27 AFRIC
Aircraft B738/M-SDE2E3FGHIRWXY/LB1

Departure

Time 2026-04-22 07:35
Airport Brussels South Charleroi Airport (EBCI)

Arrival

Time 2026-04-22 08:51
Airport Béziers Vias airport (LFMU)
Time Latitude Longitude Altitude Speed Heading
2026-04-22 07:01 50.45847 4.45398 612 ft 0 kts 245°
2026-04-22 07:02 50.46856 4.47040 626 ft 0 kts 335°
2026-04-22 07:26 50.46837 4.47054 627 ft 3 kts 336°
2026-04-22 07:26 50.46816 4.47062 617 ft 3 kts 12°
2026-04-22 07:26 50.46797 4.47047 627 ft 3 kts 54°
2026-04-22 07:26 50.46790 4.47028 627 ft 1 kts 65°
2026-04-22 07:27 50.46789 4.47025 627 ft 0 kts 65°
2026-04-22 07:29 50.46792 4.47036 627 ft 2 kts 67°
2026-04-22 07:29 50.46810 4.47101 618 ft 9 kts 65°
2026-04-22 07:29 50.46837 4.47192 619 ft 9 kts 65°
2026-04-22 07:29 50.46854 4.47284 612 ft 9 kts 97°
2026-04-22 07:30 50.46811 4.47345 615 ft 9 kts 155°
2026-04-22 07:30 50.46756 4.47381 616 ft 8 kts 155°
2026-04-22 07:30 50.46706 4.47419 620 ft 8 kts 153°
2026-04-22 07:30 50.46670 4.47439 614 ft 4 kts 176°
2026-04-22 07:31 50.46636 4.47431 614 ft 7 kts 198°
2026-04-22 07:31 50.46585 4.47340 620 ft 16 kts 249°
2026-04-22 07:31 50.46527 4.47137 616 ft 25 kts 242°
2026-04-22 07:31 50.46448 4.46871 624 ft 28 kts 246°
2026-04-22 07:32 50.46372 4.46606 616 ft 26 kts 245°
2026-04-22 07:32 50.46300 4.46357 623 ft 24 kts 245°
2026-04-22 07:32 50.46232 4.46128 620 ft 23 kts 245°
2026-04-22 07:32 50.46166 4.45906 613 ft 22 kts 245°
2026-04-22 07:33 50.46104 4.45689 619 ft 21 kts 247°
2026-04-22 07:33 50.46042 4.45479 621 ft 21 kts 244°
2026-04-22 07:33 50.45983 4.45275 618 ft 20 kts 245°
2026-04-22 07:33 50.45926 4.45077 622 ft 20 kts 245°
2026-04-22 07:34 50.45887 4.44888 618 ft 13 kts 259°
2026-04-22 07:34 50.45866 4.44863 626 ft 1 kts 173°
2026-04-22 07:34 50.45860 4.44919 618 ft 13 kts 59°
2026-04-22 07:34 50.45928 4.45100 616 ft 26 kts 61°
2026-04-22 07:35 50.46025 4.45439 616 ft 50 kts 64°
2026-04-22 07:35 50.46277 4.46285 616 ft 119 kts 65°
2026-04-22 07:35 50.46753 4.47643 810 ft 154 kts 57°
2026-04-22 07:35 50.47330 4.49042 1572 ft 157 kts 47°
2026-04-22 07:36 50.48361 4.49772 2210 ft 174 kts 22°
2026-04-22 07:36 50.49669 4.49901 2666 ft 213 kts 347°
2026-04-22 07:36 50.50921 4.48393 2936 ft 248 kts 303°
2026-04-22 07:36 50.51370 4.45685 3267 ft 273 kts 265°
2026-04-22 07:37 50.50745 4.42911 3908 ft 279 kts 229°
2026-04-22 07:37 50.49321 4.40890 4958 ft 273 kts 212°
2026-04-22 07:37 50.47782 4.39157 5741 ft 279 kts 211°
2026-04-22 07:37 50.46185 4.37365 6608 ft 284 kts 212°
2026-04-22 07:38 50.44561 4.35484 7421 ft 289 kts 213°
2026-04-22 07:38 50.42972 4.33583 8262 ft 292 kts 214°
2026-04-22 07:38 50.41341 4.31581 9098 ft 296 kts 215°
2026-04-22 07:38 50.39739 4.29579 9930 ft 300 kts 216°
2026-04-22 07:39 50.38083 4.27486 10680 ft 307 kts 216°
2026-04-22 07:39 50.36360 4.25300 10913 ft 331 kts 216°
2026-04-22 07:39 50.34558 4.23001 11426 ft 343 kts 217°
2026-04-22 07:39 50.32695 4.20616 12176 ft 347 kts 217°
2026-04-22 07:40 50.30821 4.18212 12998 ft 351 kts 217°
2026-04-22 07:40 50.28921 4.15774 13802 ft 355 kts 217°
2026-04-22 07:40 50.26996 4.13308 14554 ft 360 kts 217°
2026-04-22 07:40 50.25049 4.10816 15323 ft 363 kts 217°
2026-04-22 07:41 50.23084 4.08304 16107 ft 367 kts 217°
2026-04-22 07:41 50.21093 4.05762 16875 ft 371 kts 217°
2026-04-22 07:41 50.19091 4.03209 17632 ft 375 kts 217°
2026-04-22 07:41 50.17061 4.00622 18395 ft 379 kts 217°
2026-04-22 07:42 50.15001 3.98004 19059 ft 383 kts 217°
2026-04-22 07:42 50.12923 3.95392 19729 ft 386 kts 217°
2026-04-22 07:42 50.10669 3.93106 20371 ft 388 kts 202°
2026-04-22 07:42 50.08073 3.91980 21029 ft 389 kts 186°
2026-04-22 07:43 50.05372 3.91957 21636 ft 390 kts 173°
2026-04-22 07:43 50.02652 3.92429 22239 ft 395 kts 172°
2026-04-22 07:43 49.99909 3.92956 22795 ft 401 kts 172°
2026-04-22 07:43 49.98070 3.93308 23171 ft 404 kts 172°
2026-04-22 07:44 49.95260 3.93827 23749 ft 408 kts 173°
2026-04-22 07:44 49.92433 3.94327 24259 ft 411 kts 173°
2026-04-22 07:44 49.89576 3.94818 24764 ft 414 kts 174°
2026-04-22 07:44 49.86687 3.95305 25135 ft 421 kts 174°
2026-04-22 07:45 49.83757 3.95797 25593 ft 425 kts 174°
2026-04-22 07:45 49.80815 3.96289 26096 ft 427 kts 174°
2026-04-22 07:45 49.77856 3.96785 26574 ft 430 kts 174°
2026-04-22 07:45 49.74867 3.97286 27017 ft 433 kts 174°
2026-04-22 07:46 49.71855 3.97793 27456 ft 437 kts 174°
2026-04-22 07:46 49.68828 3.98303 27882 ft 440 kts 175°
2026-04-22 07:46 49.65763 3.98820 28145 ft 448 kts 176°
2026-04-22 07:46 49.62630 3.99346 28282 ft 458 kts 176°
2026-04-22 07:47 49.59445 3.99881 28671 ft 461 kts 176°
2026-04-22 07:47 49.56257 4.00416 29137 ft 463 kts 176°
2026-04-22 07:47 49.53042 4.00950 29529 ft 466 kts 177°
2026-04-22 07:47 49.49844 4.01479 29870 ft 470 kts 177°
2026-04-22 07:48 49.46545 4.02025 30248 ft 473 kts 177°
2026-04-22 07:48 49.43308 4.02564 30570 ft 476 kts 178°
2026-04-22 07:48 49.40000 4.03110 30768 ft 481 kts 178°
2026-04-22 07:48 49.36669 4.03660 31213 ft 479 kts 178°
2026-04-22 07:49 49.33375 4.04177 31823 ft 474 kts 179°
2026-04-22 07:49 49.30119 4.04619 32442 ft 466 kts 182°
2026-04-22 07:49 49.26888 4.04774 32946 ft 462 kts 185°
2026-04-22 07:49 49.23669 4.04780 33348 ft 462 kts 185°
2026-04-22 07:50 49.20461 4.04770 33714 ft 462 kts 186°
2026-04-22 07:50 49.17257 4.04805 34186 ft 460 kts 185°
2026-04-22 07:50 49.14065 4.04874 34630 ft 457 kts 185°
2026-04-22 07:50 49.10889 4.04959 35010 ft 455 kts 185°
2026-04-22 07:51 49.07714 4.05043 35241 ft 457 kts 184°
2026-04-22 07:51 49.04515 4.05124 35225 ft 463 kts 184°
2026-04-22 07:51 48.98092 4.05296 35200 ft 459 kts 185°
2026-04-22 07:52 48.91752 4.05468 35215 ft 454 kts 185°
2026-04-22 07:52 48.85428 4.05633 35221 ft 455 kts 185°
2026-04-22 07:53 48.79088 4.05798 35216 ft 456 kts 185°
2026-04-22 07:53 48.72733 4.05915 35213 ft 457 kts 185°
2026-04-22 07:54 48.66359 4.06014 35210 ft 458 kts 185°
2026-04-22 07:54 48.59985 4.06124 35207 ft 458 kts 185°
2026-04-22 07:55 48.53691 4.05635 35196 ft 447 kts 199°
2026-04-22 07:55 48.47635 4.03606 35184 ft 445 kts 200°
2026-04-22 07:56 48.41592 4.01569 35189 ft 446 kts 199°
2026-04-22 07:56 48.35529 3.99613 35159 ft 446 kts 199°
2026-04-22 07:57 48.29463 3.97685 35179 ft 445 kts 199°
2026-04-22 07:57 48.23442 3.95842 35177 ft 446 kts 197°
2026-04-22 07:58 48.17286 3.94499 35183 ft 448 kts 195°
2026-04-22 07:58 48.11114 3.93236 35163 ft 446 kts 195°
2026-04-22 07:59 48.04981 3.91915 35159 ft 445 kts 196°
2026-04-22 07:59 47.98866 3.90579 35150 ft 444 kts 196°
2026-04-22 08:00 47.92751 3.89239 35139 ft 443 kts 196°
2026-04-22 08:00 47.86662 3.87913 35136 ft 442 kts 196°
2026-04-22 08:01 47.80586 3.86594 35134 ft 441 kts 196°
2026-04-22 08:01 47.74525 3.85283 35128 ft 440 kts 196°
2026-04-22 08:02 47.68464 3.83974 35117 ft 439 kts 196°
2026-04-22 08:02 47.62435 3.82677 35120 ft 438 kts 196°
2026-04-22 08:03 47.56404 3.81380 35112 ft 438 kts 196°
2026-04-22 08:03 47.50379 3.80077 35106 ft 437 kts 196°
2026-04-22 08:04 47.44357 3.78772 35108 ft 437 kts 196°
2026-04-22 08:04 47.38385 3.77482 35094 ft 437 kts 196°
2026-04-22 08:05 47.32379 3.76191 35068 ft 436 kts 196°
2026-04-22 08:05 47.26385 3.74907 35088 ft 435 kts 196°
2026-04-22 08:06 47.20400 3.73628 35087 ft 434 kts 196°
2026-04-22 08:06 47.14422 3.72353 35078 ft 434 kts 196°
2026-04-22 08:07 47.08446 3.71082 35077 ft 433 kts 196°
2026-04-22 08:07 47.02482 3.69816 35073 ft 433 kts 196°
2026-04-22 08:08 46.96521 3.68555 35074 ft 433 kts 196°
2026-04-22 08:08 46.90566 3.67299 35056 ft 432 kts 195°
2026-04-22 08:09 46.84606 3.66063 35067 ft 432 kts 195°
2026-04-22 08:09 46.78664 3.64838 35071 ft 431 kts 195°
2026-04-22 08:10 46.72730 3.63612 35073 ft 431 kts 195°
2026-04-22 08:10 46.67003 3.61578 35085 ft 419 kts 207°
2026-04-22 08:11 46.61501 3.58752 35075 ft 419 kts 207°
2026-04-22 08:11 46.55983 3.56000 35071 ft 420 kts 206°
2026-04-22 08:12 46.50443 3.53306 35057 ft 420 kts 206°
2026-04-22 08:12 46.44895 3.50632 35075 ft 420 kts 205°
2026-04-22 08:13 46.39357 3.47978 35072 ft 419 kts 205°
2026-04-22 08:13 46.33821 3.45330 35066 ft 419 kts 205°
2026-04-22 08:14 46.28283 3.42687 35067 ft 418 kts 205°
2026-04-22 08:14 46.22767 3.40059 35071 ft 418 kts 205°
2026-04-22 08:15 46.17250 3.37431 35081 ft 417 kts 205°
2026-04-22 08:15 46.11735 3.34802 35064 ft 417 kts 205°
2026-04-22 08:16 46.06226 3.32183 35067 ft 417 kts 205°
2026-04-22 08:16 46.00718 3.29572 35072 ft 417 kts 205°
2026-04-22 08:17 45.95212 3.26969 35067 ft 417 kts 205°
2026-04-22 08:17 45.89702 3.24370 35070 ft 417 kts 204°
2026-04-22 08:18 45.84193 3.21776 35081 ft 417 kts 204°
2026-04-22 08:18 45.78624 3.19379 35063 ft 423 kts 196°
2026-04-22 08:19 45.72694 3.18870 35066 ft 430 kts 186°
2026-04-22 08:19 45.66702 3.18812 35039 ft 430 kts 186°
2026-04-22 08:20 45.60730 3.18722 35043 ft 429 kts 187°
2026-04-22 08:20 45.54780 3.18588 35039 ft 428 kts 187°
2026-04-22 08:21 45.48823 3.18439 34683 ft 426 kts 187°
2026-04-22 08:21 45.45925 3.18369 34370 ft 419 kts 187°
2026-04-22 08:21 45.42991 3.18298 33976 ft 415 kts 187°
2026-04-22 08:22 45.40154 3.18229 33550 ft 411 kts 187°
2026-04-22 08:22 45.37268 3.18157 33165 ft 406 kts 187°
2026-04-22 08:22 45.34493 3.18088 32771 ft 403 kts 187°
2026-04-22 08:22 45.31709 3.18019 32408 ft 399 kts 187°
2026-04-22 08:23 45.28947 3.17951 32033 ft 395 kts 187°
2026-04-22 08:23 45.26206 3.17883 31667 ft 392 kts 187°
2026-04-22 08:23 45.23487 3.17815 31295 ft 389 kts 186°
2026-04-22 08:23 45.20787 3.17749 30932 ft 386 kts 186°
2026-04-22 08:24 45.18112 3.17684 30571 ft 384 kts 186°
2026-04-22 08:24 45.15443 3.17618 30207 ft 382 kts 186°
2026-04-22 08:24 45.12789 3.17553 29806 ft 380 kts 186°
2026-04-22 08:24 45.10163 3.17488 29415 ft 376 kts 186°
2026-04-22 08:25 45.07555 3.17371 29051 ft 373 kts 187°
2026-04-22 08:25 45.04979 3.17220 28662 ft 370 kts 187°
2026-04-22 08:25 45.02411 3.17067 28300 ft 367 kts 187°
2026-04-22 08:25 44.99858 3.16921 27940 ft 365 kts 187°
2026-04-22 08:26 44.97333 3.16782 27566 ft 363 kts 187°
2026-04-22 08:26 44.94814 3.16655 27188 ft 362 kts 186°
2026-04-22 08:26 44.92297 3.16595 26838 ft 360 kts 185°
2026-04-22 08:26 44.89799 3.16566 26469 ft 359 kts 185°
2026-04-22 08:27 44.87315 3.16543 26122 ft 357 kts 185°
2026-04-22 08:27 44.84834 3.16519 25774 ft 356 kts 185°
2026-04-22 08:27 44.82362 3.16491 25410 ft 354 kts 185°
2026-04-22 08:27 44.79899 3.16460 25057 ft 353 kts 185°
2026-04-22 08:28 44.77452 3.16427 24706 ft 352 kts 185°
2026-04-22 08:28 44.75036 3.16393 24361 ft 351 kts 185°
2026-04-22 08:28 44.73388 3.16370 24124 ft 351 kts 185°
2026-04-22 08:28 44.70955 3.16337 23772 ft 350 kts 185°
2026-04-22 08:29 44.67722 3.16292 23243 ft 350 kts 185°
2026-04-22 08:29 44.66082 3.16269 22977 ft 349 kts 185°
2026-04-22 08:29 44.62883 3.16223 22490 ft 346 kts 185°
2026-04-22 08:29 44.61263 3.16170 22246 ft 343 kts 188°
2026-04-22 08:30 44.58938 3.15644 21896 ft 337 kts 198°
2026-04-22 08:30 44.56671 3.14840 21537 ft 334 kts 199°
2026-04-22 08:30 44.54429 3.14013 21205 ft 332 kts 199°
2026-04-22 08:30 44.52207 3.13192 20868 ft 330 kts 199°
2026-04-22 08:31 44.49989 3.12382 20534 ft 328 kts 199°
2026-04-22 08:31 44.47782 3.11585 20204 ft 326 kts 199°
2026-04-22 08:31 44.43387 3.10011 19557 ft 327 kts 199°
2026-04-22 08:32 44.41180 3.09226 19227 ft 329 kts 199°
2026-04-22 08:32 44.38960 3.08441 18851 ft 329 kts 199°
2026-04-22 08:32 44.36751 3.07664 18514 ft 327 kts 199°
2026-04-22 08:32 44.34575 3.06897 18172 ft 325 kts 199°
2026-04-22 08:33 44.32359 3.06117 17795 ft 323 kts 199°
2026-04-22 08:33 44.30186 3.05352 17435 ft 320 kts 199°
2026-04-22 08:33 44.28066 3.04606 17083 ft 317 kts 199°
2026-04-22 08:33 44.25940 3.03859 16759 ft 314 kts 199°
2026-04-22 08:34 44.23824 3.03116 16436 ft 312 kts 199°
2026-04-22 08:34 44.21726 3.02379 16121 ft 311 kts 200°
2026-04-22 08:34 44.19628 3.01643 15779 ft 310 kts 200°
2026-04-22 08:34 44.17518 3.00903 15462 ft 308 kts 200°
2026-04-22 08:35 44.15436 3.00173 15128 ft 307 kts 200°
2026-04-22 08:35 44.13373 2.99450 14804 ft 305 kts 200°
2026-04-22 08:35 44.11324 2.98731 14493 ft 303 kts 200°
2026-04-22 08:35 44.09325 2.98030 14271 ft 297 kts 200°
2026-04-22 08:36 44.07300 2.97320 14029 ft 295 kts 200°
2026-04-22 08:36 44.05334 2.96632 13787 ft 296 kts 200°
2026-04-22 08:36 44.03304 2.95920 13542 ft 299 kts 200°
2026-04-22 08:36 44.01271 2.95205 13292 ft 302 kts 200°
2026-04-22 08:37 43.99232 2.94491 13023 ft 302 kts 200°
2026-04-22 08:37 43.97213 2.93786 12755 ft 303 kts 199°
2026-04-22 08:37 43.95171 2.93073 12490 ft 303 kts 199°
2026-04-22 08:37 43.93121 2.92359 12244 ft 304 kts 199°
2026-04-22 08:38 43.91078 2.91648 11999 ft 301 kts 199°
2026-04-22 08:38 43.89053 2.90947 11739 ft 298 kts 199°
2026-04-22 08:38 43.87065 2.90255 11496 ft 293 kts 199°
2026-04-22 08:38 43.85096 2.89569 11233 ft 290 kts 199°
2026-04-22 08:39 43.83137 2.88888 10996 ft 289 kts 199°
2026-04-22 08:39 43.81191 2.88211 10752 ft 289 kts 199°
2026-04-22 08:39 43.79243 2.87533 10496 ft 288 kts 199°
2026-04-22 08:39 43.77248 2.87215 10212 ft 295 kts 177°
2026-04-22 08:40 43.75266 2.87971 9928 ft 298 kts 163°
2026-04-22 08:40 43.73334 2.89040 9532 ft 299 kts 161°
2026-04-22 08:40 43.71423 2.90152 9173 ft 297 kts 160°
2026-04-22 08:40 43.69520 2.91264 8802 ft 296 kts 161°
2026-04-22 08:41 43.67638 2.92357 8529 ft 292 kts 161°
2026-04-22 08:41 43.65759 2.93441 8202 ft 292 kts 161°
2026-04-22 08:41 43.63888 2.94513 7900 ft 291 kts 161°
2026-04-22 08:41 43.62026 2.95576 7552 ft 287 kts 161°
2026-04-22 08:42 43.60177 2.96622 7092 ft 287 kts 161°
2026-04-22 08:42 43.58340 2.97661 6614 ft 285 kts 161°
2026-04-22 08:42 43.56519 2.98694 6305 ft 276 kts 161°
2026-04-22 08:42 43.54791 2.99671 6202 ft 261 kts 161°
2026-04-22 08:43 43.53156 3.00594 6081 ft 248 kts 161°
2026-04-22 08:43 43.51602 3.01471 5995 ft 235 kts 161°
2026-04-22 08:43 43.50118 3.02307 5765 ft 228 kts 160°
2026-04-22 08:43 43.48660 3.03122 5495 ft 223 kts 160°
2026-04-22 08:44 43.47242 3.03918 5165 ft 218 kts 158°
2026-04-22 08:44 43.45839 3.04705 4751 ft 216 kts 157°
2026-04-22 08:44 43.44460 3.05480 4367 ft 213 kts 156°
2026-04-22 08:44 43.43114 3.06235 4211 ft 206 kts 155°
2026-04-22 08:45 43.41821 3.06961 4100 ft 195 kts 155°
2026-04-22 08:45 43.40588 3.07653 4029 ft 189 kts 155°
2026-04-22 08:45 43.39391 3.08320 3937 ft 183 kts 154°
2026-04-22 08:45 43.38215 3.08980 3813 ft 185 kts 154°
2026-04-22 08:46 43.37004 3.09661 3600 ft 190 kts 154°
2026-04-22 08:46 43.35793 3.10336 3452 ft 186 kts 153°
2026-04-22 08:46 43.34614 3.11018 3308 ft 181 kts 147°
2026-04-22 08:46 43.33830 3.12248 3173 ft 175 kts 104°
2026-04-22 08:47 43.33648 3.13904 2960 ft 178 kts 97°
2026-04-22 08:47 43.33495 3.15590 2739 ft 179 kts 96°
2026-04-22 08:47 43.33374 3.17280 2502 ft 176 kts 95°
2026-04-22 08:47 43.33271 3.18944 2278 ft 174 kts 95°
2026-04-22 08:48 43.33174 3.20588 2037 ft 168 kts 94°
2026-04-22 08:48 43.33086 3.22122 1821 ft 154 kts 95°
2026-04-22 08:48 43.33004 3.23549 1615 ft 150 kts 95°
2026-04-22 08:48 43.32924 3.24962 1432 ft 149 kts 94°
2026-04-22 08:49 43.32848 3.26304 1266 ft 133 kts 94°
2026-04-22 08:49 43.32780 3.27497 1076 ft 121 kts 93°
2026-04-22 08:49 43.32714 3.28661 921 ft 127 kts 93°
2026-04-22 08:49 43.32644 3.29875 748 ft 128 kts 92°
2026-04-22 08:50 43.32580 3.31120 571 ft 129 kts 92°
2026-04-22 08:50 43.32503 3.32332 408 ft 126 kts 90°
2026-04-22 08:50 43.32441 3.33598 221 ft 135 kts 92°
2026-04-22 08:50 43.32357 3.34846 60 ft 124 kts 92°
2026-04-22 08:51 43.32323 3.35730 52 ft 60 kts 94°
2026-04-22 08:51 43.32297 3.36143 48 ft 40 kts 95°
2026-04-22 08:51 43.32273 3.36478 50 ft 25 kts 98°
2026-04-22 08:51 43.32277 3.36580 48 ft 0 kts 16°
2026-04-22 08:52 43.32298 3.36557 47 ft 11 kts 286°
2026-04-22 08:52 43.32293 3.36447 48 ft 12 kts 265°
2026-04-22 08:52 43.32292 3.36289 51 ft 21 kts 273°
2026-04-22 08:52 43.32302 3.36067 48 ft 24 kts 274°
2026-04-22 08:53 43.32312 3.35878 53 ft 19 kts 274°
2026-04-22 08:53 43.32323 3.35700 52 ft 18 kts 275°
2026-04-22 08:53 43.32332 3.35528 53 ft 18 kts 273°
2026-04-22 08:53 43.32335 3.35387 52 ft 13 kts 252°
2026-04-22 08:54 43.32258 3.35331 58 ft 13 kts 186°
2026-04-22 08:54 43.32186 3.35301 54 ft 10 kts 232°
2026-04-22 08:54 43.32179 3.35285 55 ft 0 kts 236°
2026-04-22 08:54 43.32178 3.35282 55 ft 0 kts 236°
2026-04-22 08:55 43.32176 3.35280 55 ft 0 kts 229°
2026-04-22 08:55 43.32160 3.35271 56 ft 5 kts 195°
2026-04-22 08:55 43.32143 3.35267 56 ft 2 kts 187°
2026-04-22 08:55 43.32142 3.35267 56 ft 0 kts 187°